Weather History for KSGR - April, 2014

Change the Weather History Date:

Sunday, April 27, 2014

  Actual Average Record
Temperature  
Mean Temperature 82 °F -  
Max Temperature 89 °F 81 °F 92 °F (1948)
Min Temperature 75 °F 62 °F 50 °F (1980)
Cooling Degree Days 17    
Growing Degree Days 32 (Base 50)    
Moisture  
Dew Point 71 °F    
Average Humidity 77    
Maximum Humidity 87    
Minimum Humidity 50    
Precipitation  
Precipitation 0.00 in - - ()
Sea Level Pressure  
Sea Level Pressure 29.62 in    
Wind  
Wind Speed 16 mph (South)    
Max Wind Speed 26 mph    
Max Gust Speed 40 mph    
Visibility 10 miles    
Events      
Averages and records for this station are not official NWS values.
T = Trace of Precipitation, MM = Missing Value Source: NWS Daily Summary

Daily Weather History Graph

Daily Weather History Graph

Search for Another Location

Airport or City:

Trip Planner

Search our weather history database for the weather conditions in past years. The results will help you decide how hot, cold, wet, or windy it might be!

Date:

Astronomy

Apr. 27, 2014 Rise Set
Actual Time 6:43 AM CDT 7:56 PM CDT
Civil Twilight 6:18 AM CDT 8:22 PM CDT
Nautical Twilight 5:49 AM CDT 8:51 PM CDT
Astronomical Twilight 5:18 AM CDT 9:22 PM CDT
Moon 5:36 AM CDT (4/27) 6:38 PM CDT (4/27)
Length of Visible Light 14h 03m
Length of Day
13h 13m
Waning Crescent, 3% of the Moon is Illuminated
Apr 27
Waning Crescent
Apr 29
New
May 6
First Quarter
May 14
Full
May 21
Last Quarter

Hourly Weather History & Observations

Time (CDT) Temp. Heat Index Dew Point Humidity Pressure Visibility Wind Dir Wind Speed Gust Speed Precip Events Conditions
12:53 AM 75.9 °F - 71.1 °F 85% 29.74 in 10.0 mi SSE 11.5 mph - N/A   Overcast
1:53 AM 75.9 °F - 71.1 °F 85% 29.72 in 10.0 mi SSE 15.0 mph - N/A   Mostly Cloudy
2:53 AM 75.9 °F - 71.1 °F 85% 29.69 in 10.0 mi SSE 17.3 mph - N/A   Overcast
3:53 AM 75.9 °F - 70.0 °F 82% 29.69 in 10.0 mi South 12.7 mph - N/A   Overcast
4:53 AM 75.0 °F - 70.0 °F 84% 29.69 in 10.0 mi South 13.8 mph - N/A   Mostly Cloudy
5:53 AM 75.0 °F - 70.0 °F 84% 29.67 in 10.0 mi SSE 10.4 mph - N/A   Mostly Cloudy
6:46 AM 75.0 °F - 70.0 °F 84% 29.65 in 10.0 mi SSE 16.1 mph - N/A   Scattered Clouds
6:53 AM 75.0 °F - 71.1 °F 87% 29.66 in 10.0 mi SSE 13.8 mph 25.3 mph N/A   Mostly Cloudy
7:53 AM 75.9 °F - 70.0 °F 82% 29.66 in 10.0 mi SSE 18.4 mph 26.5 mph N/A   Mostly Cloudy
8:00 AM 75.9 °F - 70.0 °F 82% 29.66 in 10.0 mi SSE 17.3 mph - N/A   Mostly Cloudy
8:32 AM 75.9 °F - 70.0 °F 82% 29.66 in 10.0 mi SSE 17.3 mph 25.3 mph N/A   Mostly Cloudy
8:53 AM 77.0 °F - 71.1 °F 82% 29.66 in 10.0 mi SSE 13.8 mph - N/A   Mostly Cloudy
9:01 AM 77.0 °F - 70.0 °F 79% 29.66 in 10.0 mi SSE 16.1 mph - N/A   Scattered Clouds
9:53 AM 82.0 °F 85.9 °F 70.0 °F 67% 29.65 in 10.0 mi SSE 18.4 mph 27.6 mph N/A   Clear
10:53 AM 84.9 °F 88.8 °F 69.1 °F 59% 29.64 in 10.0 mi South 24.2 mph 33.4 mph N/A   Clear
11:53 AM 86.0 °F 89.4 °F 68.0 °F 55% 29.63 in 10.0 mi South 24.2 mph 29.9 mph N/A   Partly Cloudy
12:53 PM 88.0 °F 91.4 °F 68.0 °F 51% 29.61 in 10.0 mi South 24.2 mph 40.3 mph N/A   Clear
1:53 PM 89.1 °F 92.9 °F 68.0 °F 50% 29.59 in 10.0 mi SSW 26.5 mph 33.4 mph N/A   Partly Cloudy
3:53 PM 82.0 °F 86.3 °F 71.1 °F 69% 29.56 in 10.0 mi South 20.7 mph 28.8 mph N/A   Overcast
4:14 PM 81.0 °F 84.9 °F 71.1 °F 72% 29.55 in 10.0 mi South 17.3 mph - N/A   Overcast
4:53 PM 80.1 °F 83.8 °F 72.0 °F 76% 29.55 in 10.0 mi South 16.1 mph - N/A   Overcast
5:53 PM 80.1 °F 83.8 °F 72.0 °F 76% 29.55 in 10.0 mi South 13.8 mph - N/A   Overcast
6:04 PM 81.0 °F 85.2 °F 72.0 °F 74% 29.54 in 10.0 mi South 16.1 mph 23.0 mph N/A   Overcast
6:53 PM 80.1 °F 83.8 °F 72.0 °F 76% 29.54 in 10.0 mi South 13.8 mph 24.2 mph N/A   Overcast
7:53 PM 78.1 °F - 72.0 °F 81% 29.55 in 10.0 mi South 18.4 mph - N/A   Scattered Clouds
8:03 PM 78.1 °F - 72.0 °F 81% 29.55 in 10.0 mi South 17.3 mph - N/A   Mostly Cloudy
8:53 PM 78.1 °F - 72.0 °F 81% 29.60 in 10.0 mi South 12.7 mph - N/A   Overcast
9:53 PM 78.1 °F - 72.0 °F 81% 29.60 in 10.0 mi South 15.0 mph - N/A   Overcast
10:12 PM 78.1 °F - 72.0 °F 81% 29.59 in 10.0 mi South 17.3 mph - N/A   Overcast
10:53 PM 77.0 °F - 72.0 °F 84% 29.58 in 10.0 mi South 18.4 mph 28.8 mph N/A   Overcast